FALCON 9 R/B, 62719

Orbit data source: Space-Track

FALCON 9 R/B, 62719 is space debris in HEO originally from a launch on Wed, 15 Jan 2025 UTC launched from the Air Force Eastern Test Range (AFETR). Debris objects in space refer to the collection of defunct objects orbiting the Earth. Examples of debris include non-operational satellites, rocket bodies, and fragments generated from explosions, collisions, or faulty payload assembly.

Loading next visibility...
Identifier
62719, 2025-010D
Orbit
HEO
Last TLE update
1 month ago
Origin
Manufacturer
SpaceX
Mission
Spacecraft
Bus & Motor
F9ST2, Unknown motor
Mass
~3,000 kg wet, ~3,000 kg dry
Launch date (UTC)
2025-01-15 (6 months ago)
Launch vehicle
Unknown
Launch site
Air Force Eastern Test Range (AFETR)
Object type
Payload
Rocket body
Debris
Shape & HBR
Cyl, 15.53 m
Radar Cross Section
39.980 m²

Expand to show TLE details & history

TLE from 1 month ago
0 FALCON 9 R/B
1 62719U 25010D   25151.78685113 -.00009854  00000-0  00000-0 0  9993
2 62719  10.3325  32.4407 5644687   9.5393   2.9023  0.03735828    79
Epoch: 2025-05-31T18:53Z
TLE epoch observation values (Epoch: 2025-05-31T18:53:03.937Z)
Latitude
-0.99131°
Longitude
-146.1473°
Altitude
152,197.306 km
Speed
1.993 km/s
True Right ascension
01h 46m 33s
True Declination
0° 59' 28"
Sunlit
Object was in daylight at epoch
Visualization orbit readout
Latitude
9.98135°
Longitude
7.18864°
Altitude
395,821.425 km
Speed
0.963 km/s
Apparent Right ascension
12h 00m 58s
Apparent Declination
9° 18' 12"
Sunlit
Object is in daylight
Visualization observer readout
Local Sidereal Time
01:28:48
Azimuth
27.422° NE
Elevation
-36.744°
Doppler factor
1
Orbital elements
Apogee altitude
584,971.904 km
Perigee altitude
158,247.369 km
Semi-major axis
377,987.774 km
Eccentricity
0.56447
Inclination
10.3325°
RAAN
32.4407°
Arg. of periapsis
9.5393°
True anomaly
Unknown
Mean anomaly
2.9023°
Eccentric anomaly
Unknown
Mean motion
0.00934 °/min
Orbital period
38,545.7 mins
BSTAR
0
Loading maneuver chart data...
Loading SW <> Apogee altitude chart data...
Loading historical data...
Loading historical data...
Loading historical data...
Loading historical data...
Loading historical data...
Loading historical data...
Loading historical data...
Other satellites on launch #10 in the year 2025 (2025-01-15 UTC)

FALCON 9 R/B Visibility forecast

Observer location: undefined°, undefined°

Span
Click to sort rows by Start time (UTC) header in descending order
Start Az.
Max El. time (UTC)
Max El. Az.
Max El.
End time (UTC)
End Az.
681 mins2025-07-03 18:45:56.304Z86.655° E2025-07-04 00:27:56.304Z179.974° S40.548°2025-07-04 06:06:56.304Z272.277° WNW
|